EW5168 Weather Reports


Display with metric or nautical units.
time (UTC)temp
F
wind
direction
speed
MPH
gust
MPH
rain 1hr
in
rain 24hr
in
rain mn
in
humidity
%
barometer
mb
20260903134707 81 192 3.0 8.0 0.00 0.00 0.00 1 1013.2
20260903134207 81 181 3.0 7.0 0.00 0.00 0.00 1 1013.2
20260903133813 81 150 2.0 7.0 0.00 0.00 0.00 1 1013.1
20260903133705 81 201 2.0 7.0 0.00 0.00 0.00 1 1013.2
20260903133209 81 187 2.0 6.0 0.00 0.00 0.00 1 1013.2
20260903133205 81 196 3.0 6.0 0.00 0.00 0.00 1 1013.2
20260903131703 81 155 3.0 8.0 0.00 0.00 0.00 1 1013.1
20260903131202 81 171 3.0 8.0 0.00 0.00 0.00 1 1013.1
20260903130702 80 174 3.0 9.0 0.00 0.00 0.00 1 1013.1
20260903130201 80 145 3.0 9.0 0.00 0.00 0.00 1 1013.0
20260903125701 80 153 2.0 8.0 0.00 0.00 0.00 1 1013.0
20260903125201 80 212 2.0 6.0 0.00 0.00 0.00 1 1013.0
20260903124700 80 153 3.0 6.0 0.00 0.00 0.00 1 1012.9
20260903124204 80 157 2.0 6.0 0.00 0.00 0.00 1 1012.9
20260903124200 80 143 2.0 6.0 0.00 0.00 0.00 1 1012.9
20260903123205 80 226 2.0 5.0 0.00 0.00 0.00 1 1012.8
20260903123201 80 193 2.0 6.0 0.00 0.00 0.00 1 1012.8
20260903122201 80 159 2.0 4.0 0.00 0.00 0.00 1 1012.7
20260903121658 80 182 2.0 8.0 0.00 0.00 0.00 1 1012.7
20260903121201 80 207 2.0 9.0 0.00 0.00 0.00 1 1012.7
20260903120659 80 157 2.0 9.0 0.00 0.00 0.00 1 1012.6
20260903120159 80 175 2.0 6.0 0.00 0.00 0.00 1 1012.5
20260903115658 80 130 3.0 7.0 0.00 0.00 0.00 1 1012.5
20260903115156 80 141 3.0 8.0 0.00 0.00 0.00 1 1012.5
20260903114656 80 198 3.0 8.0 0.00 0.00 0.00 1 1012.5
20260903114156 80 196 3.0 9.0 0.00 0.00 0.00 1 1012.4
20260903113656 80 185 3.0 9.0 0.00 0.00 0.00 1 1012.4
20260903113157 80 153 4.0 7.0 0.00 0.00 0.00 1 1012.2
20260903112654 80 168 3.0 7.0 0.00 0.00 0.00 1 1012.3
20260903112154 80 209 2.0 9.0 0.00 0.00 0.00 1 1012.4
20260903111657 80 170 3.0 11.0 0.00 0.00 0.00 1 1012.3
20260903111653 80 151 3.0 9.0 0.00 0.00 0.00 1 1012.4
20260903110652 80 193 3.0 11.0 0.00 0.00 0.00 1 1012.3
20260903110157 80 160 3.0 7.0 0.00 0.00 0.00 1 1012.3
20260903110153 80 200 3.0 7.0 0.00 0.00 0.00 1 1012.3
20260903105152 80 173 2.0 7.0 0.00 0.00 0.00 1 1012.3
20260903104650 80 169 3.0 8.0 0.00 0.00 0.00 1 1012.3
20260903104151 80 142 3.0 9.0 0.00 0.00 0.00 1 1012.3
20260903103650 80 196 3.0 9.0 0.00 0.00 0.00 1 1012.3
20260903103150 80 201 3.0 9.0 0.00 0.00 0.00 1 1012.4
20260903102653 80 167 3.0 9.0 0.00 0.00 0.00 1 1012.3
20260903102148 80 141 3.0 9.0 0.00 0.00 0.00 1 1012.3
20260903101646 79 167 3.0 11.0 0.00 0.00 0.00 1 1012.3
20260903101146 79 158 3.0 11.0 0.00 0.00 0.00 1 1012.3
20260903100645 79 194 3.0 7.0 0.00 0.00 0.00 1 1012.3
20260903100144 79 169 3.0 9.0 0.00 0.00 0.00 1 1012.3
20260903095643 79 206 3.0 9.0 0.00 0.00 0.00 1 1012.3
20260903095143 79 197 3.0 8.0 0.00 0.00 0.00 1 1012.3
20260903094641 79 182 3.0 8.0 0.00 0.00 0.00 1 1012.3
20260903094140 79 155 3.0 8.0 0.00 0.00 0.00 1 1012.3
20260903093640 79 204 2.0 8.0 0.00 0.00 0.00 1 1012.4
20260903093140 79 146 2.0 6.0 0.00 0.00 0.00 1 1012.4
20260903092640 79 169 2.0 6.0 0.00 0.00 0.00 1 1012.4
20260903092140 78 88 2.0 6.0 0.00 0.00 0.00 1 1012.4
20260903091639 78 177 2.0 9.0 0.00 0.00 0.00 1 1012.5
20260903091139 78 157 2.0 9.0 0.00 0.00 0.00 1 1012.5
20260903090639 78 165 3.0 8.0 0.00 0.00 0.00 1 1012.5
20260903090138 78 171 3.0 8.0 0.00 0.00 0.00 1 1012.4
20260903085638 78 117 2.0 6.0 0.00 0.00 0.00 1 1012.4
20260903085138 78 185 2.0 6.0 0.00 0.00 0.00 1 1012.4
20260903084640 78 157 2.0 6.0 0.00 0.00 0.00 1 1012.5
20260903084142 78 181 3.0 8.0 0.00 0.00 0.00 1 1012.5
20260903084137 78 155 2.0 6.0 0.00 0.00 0.00 1 1012.5
20260903083136 78 164 3.0 8.0 0.00 0.00 0.00 1 1012.4
20260903082636 78 159 3.0 8.0 0.00 0.00 0.00 1 1012.4
20260903082136 78 158 4.0 9.0 0.00 0.00 0.00 1 1012.5
20260903081636 78 223 4.0 9.0 0.00 0.00 0.00 1 1012.4
20260903081136 78 174 4.0 12.0 0.00 0.00 0.00 1 1012.4
20260903080639 78 157 3.0 10.0 0.00 0.00 0.00 1 1012.5
20260903080635 78 166 4.0 12.0 0.00 0.00 0.00 1 1012.5
20260903075638 78 153 3.0 6.0 0.00 0.00 0.00 1 1012.5
20260903075634 79 142 3.0 8.0 0.00 0.00 0.00 1 1012.6
20260903074634 79 186 3.0 9.0 0.00 0.00 0.00 1 1012.5
20260903074134 79 196 3.0 9.0 0.00 0.00 0.00 1 1012.6
20260903073634 79 182 3.0 9.0 0.00 0.00 0.00 1 1012.5
20260903073134 79 188 4.0 12.0 0.00 0.00 0.00 1 1012.5
20260903072634 79 256 4.0 12.0 0.00 0.00 0.00 1 1012.5
20260903072135 79 222 4.0 9.0 0.00 0.00 0.00 1 1012.5
20260903071638 79 189 3.0 7.0 0.00 0.00 0.00 1 1012.5
20260903071634 79 202 4.0 9.0 0.00 0.00 0.00 1 1012.5
20260903070635 79 178 2.0 5.0 0.00 0.00 0.00 1 1012.6
20260903070132 79 167 2.0 5.0 0.00 0.00 0.00 1 1012.7
20260903065632 79 172 2.0 5.0 0.00 0.00 0.00 1 1012.7
20260903065131 79 225 2.0 6.0 0.00 0.00 0.00 1 1012.7
20260903064629 80 169 2.0 6.0 0.00 0.00 0.00 1 1012.8
20260903064130 80 190 2.0 5.0 0.00 0.00 0.00 1 1012.9
20260903063630 80 167 2.0 6.0 0.00 0.00 0.00 1 1012.9
20260903063130 80 134 2.0 6.0 0.00 0.00 0.00 1 1012.9
20260903062630 80 150 2.0 6.0 0.00 0.00 0.00 1 1012.9
20260903062133 80 148 3.0 6.0 0.00 0.00 0.00 1 1013.0
20260903062129 80 189 2.0 6.0 0.00 0.00 0.00 1 1012.9
20260903061734 80 167 2.0 7.0 0.00 0.00 0.00 1 1012.9
20260903060628 80 139 2.0 7.0 0.00 0.00 0.00 1 1012.9
20260903060127 80 176 2.0 6.0 0.00 0.00 0.00 1 1012.9
20260903055630 80 171 2.0 6.0 0.00 0.00 0.00 1 1012.8
20260903055626 80 157 2.0 6.0 0.00 0.00 0.00 1 1012.9
20260903054625 80 194 2.0 6.0 0.00 0.00 0.00 1 1012.8
20260903054124 80 142 1.0 4.0 0.00 0.00 0.00 1 1013.0
20260903053627 81 182 2.0 4.0 0.00 0.00 0.00 1 1013.0
20260903053623 81 205 2.0 4.0 0.00 0.00 0.00 1 1013.0
20260903052624 81 178 1.0 3.0 0.00 0.00 0.00 1 1013.0
20260903052123 81 179 0.0 3.0 0.00 0.00 0.00 1 1013.0
20260903051624 81 142 0.0 1.0 0.00 0.00 0.00 1 1013.0
20260903051123 81 142 0.0 1.0 0.00 0.00 0.00 1 1013.0
20260903050622 82 142 0.0 2.0 0.00 0.00 0.00 1 1013.0
20260903050122 82 137 1.0 2.0 0.00 0.00 0.00 1 1012.9
20260903045621 82 172 1.0 3.0 0.00 0.00 0.00 1 1013.0
20260903045120 82 196 1.0 4.0 0.00 0.00 0.00 1 1013.1
20260903044619 82 163 1.0 4.0 0.00 0.00 0.00 1 1013.1
20260903044123 83 111 1.0 3.0 0.00 0.00 0.00 1 1013.2
20260903044118 83 159 1.0 2.0 0.00 0.00 0.00 1 1013.1
20260903043119 83 140 1.0 3.0 0.00 0.00 0.00 1 1013.2
20260903042619 83 96 1.0 3.0 0.00 0.00 0.00 1 1013.1
20260903042119 83 97 1.0 6.0 0.00 0.00 0.00 1 1013.2
20260903041722 84 93 1.0 3.0 0.00 0.00 0.00 1 1013.3
20260903041620 83 94 1.0 6.0 0.00 0.00 0.00 1 1013.2
20260903041616 83 168 1.0 3.0 0.00 0.00 0.00 1 1013.3
20260903040114 84 93 1.0 3.0 0.00 0.00 0.00 1 1013.4
20260903035616 84 84 1.0 3.0 0.00 0.00 0.00 1 1013.3
20260903035611 84 94 2.0 3.0 0.00 0.00 0.00 1 1013.3
20260903034611 84 86 1.0 4.0 0.00 0.00 0.00 1 1013.4
20260903034111 84 84 1.0 4.0 0.00 0.00 0.00 1 1013.4
20260903033612 84 78 1.0 4.0 0.00 0.00 0.00 1 1013.4
20260903033112 85 76 2.0 7.0 0.00 0.00 0.00 1 1013.4
20260903032610 85 141 2.0 7.0 0.00 0.00 0.00 1 1013.2
20260903032108 85 112 2.0 6.0 0.00 0.00 0.00 2 1013.2
20260903031611 85 94 2.0 6.0 0.00 0.00 0.00 4 1013.0
20260903031607 85 98 2.0 6.0 0.00 0.00 0.00 3 1013.1
20260903030611 85 87 2.0 7.0 0.00 0.00 0.00 8 1012.9
20260903030607 85 149 2.0 6.0 0.00 0.00 0.00 6 1013.0
20260903025604 86 99 2.0 7.0 0.00 0.00 0.00 9 1012.9
20260903025104 86 86 3.0 8.0 0.00 0.00 0.00 12 1012.8
20260903024604 86 101 3.0 8.0 0.00 0.00 0.00 14 1012.8
20260903024107 87 80 2.0 7.0 0.00 0.00 0.00 20 1012.6
20260903024103 86 99 2.0 7.0 0.00 0.00 0.00 17 1012.8
20260903023100 87 92 2.0 4.0 0.00 0.00 0.00 23 1012.5
20260903022600 87 78 3.0 7.0 0.00 0.00 0.00 24 1012.5
20260903022101 87 79 2.0 7.0 0.00 0.00 0.00 26 1012.5
20260903021600 87 85 2.0 6.0 0.00 0.00 0.00 27 1012.4
20260903021105 88 82 2.0 6.0 0.00 0.00 0.00 29 1012.2
20260903021101 87 90 2.0 6.0 0.00 0.00 0.00 28 1012.4
20260903020059 88 80 2.0 6.0 0.00 0.00 0.00 30 1012.1
20260903015601 88 92 1.0 7.0 0.00 0.00 0.00 32 1012.0
20260903015557 88 78 2.0 7.0 0.00 0.00 0.00 31 1012.1
20260903014601 89 165 1.0 4.0 0.00 0.00 0.00 34 1011.9
20260903014557 89 128 1.0 4.0 0.00 0.00 0.00 33 1011.8
20260903013556 89 88 2.0 8.0 0.00 0.00 0.00 34 1011.8
20260903013056 90 82 2.0 8.0 0.00 0.00 0.00 35 1011.8
20260903012554 90 76 3.0 8.0 0.00 0.00 0.00 36 1011.7
20260903012052 90 94 3.0 8.0 0.00 0.00 0.00 36 1011.7
20260903011557 91 91 2.0 6.0 0.00 0.00 0.00 38 1011.6
20260903011553 90 81 2.0 6.0 0.00 0.00 0.00 37 1011.6
20260903010550 91 92 2.0 7.0 0.00 0.00 0.00 38 1011.5
20260903010050 91 80 2.0 7.0 0.00 0.00 0.00 39 1011.5
20260903005550 92 81 2.0 6.0 0.00 0.00 0.00 40 1011.5
20260903005054 93 96 3.0 7.0 0.00 0.00 0.00 42 1011.5
20260903005050 92 77 3.0 7.0 0.00 0.00 0.00 41 1011.5
20260903004052 94 98 2.0 7.0 0.00 0.00 0.00 42 1011.4
20260903004047 94 96 3.0 9.0 0.00 0.00 0.00 42 1011.3
20260903003044 95 88 4.0 10.0 0.00 0.00 0.00 41 1011.2
20260903002544 96 86 2.0 10.0 0.00 0.00 0.00 40 1011.0
20260903002042 97 160 1.0 4.0 0.00 0.00 0.00 38 1010.9
20260903001542 97 153 0.0 3.0 0.00 0.00 0.00 36 1010.6
20260903001044 97 62 0.0 2.0 0.00 0.00 0.00 36 1010.6
20260903000542 97 82 0.0 2.0 0.00 0.00 0.00 36 1010.6
20260903000040 98 61 1.0 3.0 0.00 0.00 0.00 35 1010.6
20260902235540 98 59 2.0 6.0 0.00 0.00 0.00 35 1010.6
20260902235040 98 84 2.0 6.0 0.00 0.00 0.00 35 1010.6
20260902234540 98 50 1.0 5.0 0.00 0.00 0.00 35 1010.5
20260902234038 98 76 1.0 3.0 0.00 0.00 0.00 34 1010.6
20260902233542 99 50 0.0 1.0 0.00 0.00 0.00 33 1010.5
20260902233538 99 58 1.0 2.0 0.00 0.00 0.00 34 1010.5
20260902232538 99 50 1.0 2.0 0.00 0.00 0.00 33 1010.5
20260902232038 99 27 1.0 2.0 0.00 0.00 0.00 32 1010.5
20260902231538 99 30 0.0 2.0 0.00 0.00 0.00 32 1010.5
20260902231038 99 70 0.0 1.0 0.00 0.00 0.00 33 1010.5
20260902230538 100 70 1.0 3.0 0.00 0.00 0.00 32 1010.5
20260902230038 100 70 1.0 3.0 0.00 0.00 0.00 32 1010.5
20260902225539 100 67 1.0 4.0 0.00 0.00 0.00 32 1010.5
20260902225535 100 66 2.0 4.0 0.00 0.00 0.00 32 1010.5
20260902225139 100 67 1.0 4.0 0.00 0.00 0.00 32 1010.4
20260902224034 100 126 1.0 4.0 0.00 0.00 0.00 32 1010.4
20260902223534 101 87 1.0 4.0 0.00 0.00 0.00 32 1010.4
20260902223034 101 49 1.0 4.0 0.00 0.00 0.00 32 1010.3
20260902222534 100 5 1.0 3.0 0.00 0.00 0.00 32 1010.4
20260902222034 100 350 1.0 4.0 0.00 0.00 0.00 32 1010.4
20260902221534 100 77 1.0 4.0 0.00 0.00 0.00 32 1010.4
20260902221038 101 348 0.0 3.0 0.00 0.00 0.00 32 1010.4
20260902221034 100 355 1.0 2.0 0.00 0.00 0.00 32 1010.5
20260902220038 101 256 1.0 3.0 0.00 0.00 0.00 32 1010.5
20260902220034 101 335 1.0 3.0 0.00 0.00 0.00 32 1010.5
20260902215033 101 72 1.0 3.0 0.00 0.00 0.00 31 1010.7
20260902214534 101 29 2.0 3.0 0.00 0.00 0.00 31 1010.7
20260902214035 101 31 1.0 2.0 0.00 0.00 0.00 32 1010.7
20260902213534 102 326 1.0 3.0 0.00 0.00 0.00 32 1010.8
20260902213032 101 12 2.0 6.0 0.00 0.00 0.00 33 1010.8
20260902212532 102 65 1.0 6.0 0.00 0.00 0.00 32 1010.9
20260902212032 101 347 1.0 4.0 0.00 0.00 0.00 33 1010.8
20260902211537 101 69 1.0 8.0 0.00 0.00 0.00 33 1010.9
20260902211532 101 68 2.0 8.0 0.00 0.00 0.00 33 1010.9
20260902210530 101 316 1.0 4.0 0.00 0.00 0.00 32 1011.0
20260902210030 102 73 2.0 4.0 0.00 0.00 0.00 32 1011.1
20260902205530 103 53 2.0 6.0 0.00 0.00 0.00 32 1011.0
20260902205030 103 74 1.0 6.0 0.00 0.00 0.00 32 1011.0
20260902204528 103 64 1.0 4.0 0.00 0.00 0.00 31 1011.2
20260902204032 101 341 1.0 3.0 0.00 0.00 0.00 31 1011.4
20260902204028 102 348 1.0 4.0 0.00 0.00 0.00 31 1011.3
20260902203027 101 160 2.0 6.0 0.00 0.00 0.00 32 1011.4
20260902202528 102 17 2.0 6.0 0.00 0.00 0.00 32 1011.4
20260902202031 102 74 2.0 5.0 0.00 0.00 0.00 32 1011.5
20260902202027 102 301 1.0 5.0 0.00 0.00 0.00 32 1011.5
20260902201025 101 60 1.0 4.0 0.00 0.00 0.00 32 1011.6
20260902200524 102 81 1.0 4.0 0.00 0.00 0.00 32 1011.7
20260902200024 103 5 1.0 4.0 0.00 0.00 0.00 31 1011.9
20260902195528 103 82 1.0 4.0 0.00 0.00 0.00 32 1012.0
20260902195524 103 35 1.0 3.0 0.00 0.00 0.00 32 1011.9
20260902194521 102 15 1.0 4.0 0.00 0.00 0.00 32 1012.1
20260902194022 103 9 1.0 4.0 0.00 0.00 0.00 32 1012.1
20260902193522 102 31 1.0 4.0 0.00 0.00 0.00 32 1012.3
20260902193021 102 65 1.0 3.0 0.00 0.00 0.00 33 1012.3
20260902192520 102 93 1.0 3.0 0.00 0.00 0.00 32 1012.3
20260902192019 103 329 1.0 3.0 0.00 0.00 0.00 32 1012.6
20260902191525 102 50 1.0 5.0 0.00 0.00 0.00 33 1012.7
20260902191520 103 319 1.0 3.0 0.00 0.00 0.00 32 1012.6
20260902190520 101 325 1.0 5.0 0.00 0.00 0.00 33 1012.8
20260902190020 101 351 0.0 2.0 0.00 0.00 0.00 32 1012.9
20260902185520 99 320 0.0 3.0 0.00 0.00 0.00 33 1013.0
20260902185023 99 340 0.0 2.0 0.00 0.00 0.00 33 1013.2
20260902185019 99 245 1.0 3.0 0.00 0.00 0.00 34 1013.0
20260902184622 98 74 1.0 2.0 0.00 0.00 0.00 34 1013.2
20260902183518 99 71 1.0 4.0 0.00 0.00 0.00 34 1013.3
20260902183018 99 355 1.0 4.0 0.00 0.00 0.00 33 1013.4
20260902182518 100 350 1.0 5.0 0.00 0.00 0.00 33 1013.4
20260902182020 99 202 1.0 4.0 0.00 0.00 0.00 33 1013.6
20260902182016 99 313 1.0 5.0 0.00 0.00 0.00 34 1013.5
20260902181015 99 180 1.0 3.0 0.00 0.00 0.00 33 1013.9
20260902180514 100 246 1.0 4.0 0.00 0.00 0.00 32 1014.0
20260902180510 98 323 1.0 4.0 0.00 0.00 0.00 33 1014.0
20260902175509 99 67 1.0 4.0 0.00 0.00 0.00 32 1014.2
20260902175009 98 296 0.0 4.0 0.00 0.00 0.00 32 1014.2
20260902174511 97 345 1.0 3.0 0.00 0.00 0.00 32 1014.4
20260902174507 97 321 0.0 4.0 0.00 0.00 0.00 33 1014.3
20260902173507 97 311 1.0 4.0 0.00 0.00 0.00 32 1014.5
20260902173012 95 314 1.0 3.0 0.00 0.00 0.00 32 1014.7
20260902173008 97 337 1.0 4.0 0.00 0.00 0.00 31 1014.6
20260902172005 95 84 1.0 3.0 0.00 0.00 0.00 31 1014.8
20260902171505 95 30 1.0 2.0 0.00 0.00 0.00 31 1014.9
20260902171003 95 323 1.0 4.0 0.00 0.00 0.00 30 1015.0
20260902170503 94 65 1.0 4.0 0.00 0.00 0.00 30 1015.0
20260902170003 94 71 0.0 3.0 0.00 0.00 0.00 30 1015.1
20260902165503 94 9 0.0 3.0 0.00 0.00 0.00 29 1015.1
20260902165002 94 5 1.0 3.0 0.00 0.00 0.00 29 1015.1
20260902164506 94 65 0.0 2.0 0.00 0.00 0.00 28 1015.4
20260902164502 94 78 1.0 3.0 0.00 0.00 0.00 28 1015.2
20260902163459 93 12 0.0 2.0 0.00 0.00 0.00 27 1015.4
20260902162957 93 121 0.0 3.0 0.00 0.00 0.00 27 1015.4
20260902162455 92 153 1.0 3.0 0.00 0.00 0.00 26 1015.4
20260902161958 92 306 1.0 3.0 0.00 0.00 0.00 25 1015.4
20260902161954 91 80 1.0 3.0 0.00 0.00 0.00 25 1015.5
20260902160953 91 109 1.0 2.0 0.00 0.00 0.00 24 1015.6
20260902160453 91 344 1.0 2.0 0.00 0.00 0.00 23 1015.6
20260902155952 90 32 0.0 2.0 0.00 0.00 0.00 22 1015.5
20260902155455 90 5 0.0 2.0 0.00 0.00 0.00 21 1015.6
20260902155450 90 348 1.0 2.0 0.00 0.00 0.00 20 1015.6
20260902154448 89 279 1.0 2.0 0.00 0.00 0.00 19 1015.6
20260902153947 89 237 0.0 2.0 0.00 0.00 0.00 17 1015.6
20260902153447 89 315 0.0 1.0 0.00 0.00 0.00 14 1015.6
20260902152945 88 317 0.0 3.0 0.00 0.00 0.00 13 1015.6
20260902152445 88 207 1.0 3.0 0.00 0.00 0.00 13 1015.6
20260902151945 87 147 1.0 5.0 0.00 0.00 0.00 13 1015.6
20260902151444 87 108 1.0 5.0 0.00 0.00 0.00 12 1015.6
20260902150943 87 159 1.0 4.0 0.00 0.00 0.00 11 1015.7
20260902150443 87 72 1.0 3.0 0.00 0.00 0.00 10 1015.7
20260902145943 87 93 1.0 3.0 0.00 0.00 0.00 9 1015.7
20260902145444 87 94 1.0 3.0 0.00 0.00 0.00 8 1015.7
20260902144941 86 144 1.0 4.0 0.00 0.00 0.00 7 1015.7
20260902144441 86 76 1.0 4.0 0.00 0.00 0.00 5 1015.7
20260902143940 85 106 1.0 4.0 0.00 0.00 0.00 3 1015.8
20260902143439 85 71 2.0 4.0 0.00 0.00 0.00 1 1015.8
20260902142939 84 78 2.0 4.0 0.00 0.00 0.00 1 1015.7
20260902142435 84 98 1.0 4.0 0.00 0.00 0.00 1 1015.7
20260902141935 84 88 1.0 3.0 0.00 0.00 0.00 1 1015.7
20260902141434 84 108 1.0 3.0 0.00 0.00 0.00 1 1015.6
20260902140940 83 82 1.0 2.0 0.00 0.00 0.00 1 1015.5
20260902140935 83 82 1.0 2.0 0.00 0.00 0.00 1 1015.6
20260902135937 82 84 1.0 3.0 0.00 0.00 0.00 1 1015.6
20260902135933 82 88 1.0 3.0 0.00 0.00 0.00 1 1015.6